Find Aqua (EOS PM-1)

NORAD ID: 27386 Int'l Des: 2002-009 Owner: ESA Country: I-ESA operational
LEOCIRCULARRETROGRADESSO

現在のビュー

3D地球を読み込み中...

Envisatについて

説明を読み込み中...

次回通過

Passes for default location (London). Set your location on the main map for personalized predictions.

高度履歴

Loading altitude history...

軌道要素

1 27386U 02009A 26151.50241580 .00000124 00000-0 54033-4 0 9993
2 27386 98.3829 103.1938 0001298 92.3180 20.4555 14.39060551271088
Epoch: May 31, 2026 • Age: 9 hours

現在のステータス

高度 766.6 km
速度 7.47 km/s
衛星直下点 -10.00°S, 106.85°W
打ち上げ日 Mar 1, 2002
運用期間 24.2 years
タイプ other

技術仕様

分類 Payload
質量 8211.00 kg
乾燥質量 7911.00 kg
総質量 8211.00 kg
長さ 10.00 m
直径 4.50 m
スパン 26.00 m
形状 Box + Pan
製造者 ASTD
バスタイプ SPOT/PPF
フェーズステータス In Orbit
所有者/国 ESA/I-ESA

Most Searched